This demonstration page uses our WeatherBlox Daily Observations layout. Learn more.

Left ArrowRight Arrow

Hourly Observations for September 5, 2021

Temp ( °F °C ) Dew Point ( °F °C ) Humidity (%) Winds ( mph kmh ) Pressure ( in mb ) Visibility ( mi km ) Precip ( " mm )
12:15 am 00:15 Clear 62 16.5 59 14.9 90 90 S 5 7 30.02 1016 10 16 N/A
12:35 am 00:35 Clear 62 16.7 59 15 90 90 SSE 3 6 30.01 1016 10 16 N/A
12:55 am 00:55 Clear 61 16.1 58 14.6 91 91 S 3 6 30.02 1017 10 16 N/A
1:15 am 01:15 Clear 62 16.4 59 15 91 91 S 3 6 30.03 1017 10 16 N/A
1:35 am 01:35 Partly Cloudy 61 16.3 59 14.9 91 91 SSW 5 7 30.03 1017 10 16 N/A
1:55 am 01:55 Partly Cloudy 62 16.5 59 15 91 91 SSW 6 9 30.03 1017 10 16 N/A
2:15 am 02:15 Mostly Cloudy 62 16.8 59 15 89 89 SSW 5 7 30.01 1016 10 16 N/A
2:35 am 02:35 Partly Cloudy 63 17 59 15 88 88 S 3 6 30.01 1016 10 16 N/A
2:55 am 02:55 Clear 62 16.5 59 15 91 91 SSW 6 9 30.01 1016 10 16 N/A
3:15 am 03:15 Clear 62 16.6 59 15.1 91 91 S 6 9 30.01 1016 10 16 N/A
3:35 am 03:35 Clear 62 16.4 59 15 91 91 N N/A 30.00 1016 10 16 N/A
3:55 am 03:55 Clear 61 16.1 59 15.1 94 94 N N/A 30.00 1016 10 16 N/A
4:15 am 04:15 Clear 62 16.4 59 15.2 93 93 SW 3 6 30.00 1016 10 16 N/A
4:35 am 04:35 Clear with Nearby Thunderstorms 62 16.5 60 15.5 94 94 SW 6 9 30.00 1016 10 16 N/A
4:55 am 04:55 Clear 62 16.6 60 15.3 92 92 SSW 7 11 30.00 1016 10 16 N/A
5:15 am 05:15 Clear 62 16.5 60 15.5 94 94 SSW 6 9 30.00 1016 10 16 N/A
5:35 am 05:35 Partly Cloudy 62 16.5 60 15.5 94 94 SSW 8 13 30.00 1016 10 16 N/A
5:55 am 05:55 Partly Cloudy with Thunderstorms 63 17.1 61 16 93 93 SSW 12 19 29.96 1015 10 16 N/A
6:15 am 06:15 Partly Cloudy 63 17.4 61 15.9 91 91 NNE 18 30 30.01 1016 10 16 N/A
6:35 am 06:35 Mostly Cloudy 63 17.2 60 15.8 92 92 E 10 17 30.02 1017 10 16 N/A
6:55 am 06:55 Partly Cloudy 63 17.1 61 16 93 93 E 10 17 30.01 1016 10 16 N/A
7:15 am 07:15 Partly Cloudy 63 17.1 61 16 93 93 E 8 13 30.02 1017 10 16 N/A
7:35 am 07:35 Mostly Cloudy with Thunderstorms 64 17.5 61 16.1 92 92 SSE 3 6 30.05 1018 10 16 N/A
7:55 am 07:55 Cloudy with Thunderstorms 64 17.5 61 16.2 92 92 WSW 5 7 30.05 1018 7 11 0.03 0.76
8:15 am 08:15 Cloudy 64 17.6 62 16.4 93 93 SW 6 9 30.09 1019 10 16 N/A
8:35 am 08:35 Cloudy with Thunderstorms 63 17.3 61 16.3 94 94 S 3 6 30.09 1019 5 8 0.06 1.52
8:55 am 08:55 Cloudy with Thunderstorms 63 17.1 61 16.1 94 94 SSE 7 11 30.06 1018 5 8 0.13 3.30
9:15 am 09:15 Mostly Cloudy with Thunderstorms 63 17 61 16 94 94 SE 10 17 30.00 1016 7 11 0.02 0.51
9:35 am 09:35 Partly Cloudy 63 17.2 61 16.2 94 94 S 12 19 30.00 1016 10 16 0.02 0.51
9:55 am 09:55 Sunny 64 17.7 61 16.3 92 92 SSE 8 13 29.99 1015 10 16 0.02 0.51
10:15 am 10:15 Sunny 66 18.9 62 16.7 87 87 S 10 17 29.99 1015 10 16 N/A
10:35 am 10:35 Sunny 68 19.8 62 16.5 81 81 SSW 15 24 29.99 1016 10 16 N/A
10:55 am 10:55 Sunny 69 20.6 62 16.5 77 77 SSW 12 19 29.98 1015 10 16 N/A
11:15 am 11:15 Sunny 70 21.2 62 16.6 75 75 S 12 19 29.98 1015 10 16 N/A
11:35 am 11:35 Sunny 71 21.6 63 17.1 76 76 S 10 17 29.97 1015 10 16 N/A
11:55 am 11:55 Partly Cloudy 72 22.2 62 16.9 72 72 SSW 9 15 29.98 1015 10 16 N/A
12:15 pm 12:15 Mostly Cloudy 74 23.6 62 16.6 65 65 S 5 7 29.97 1015 10 16 N/A
12:35 pm 12:35 Partly Cloudy 74 23.6 61 16.1 63 63 SSW 7 11 29.97 1015 10 16 N/A
12:55 pm 12:55 Mostly Cloudy 76 24.6 61 16.1 59 59 S 7 11 29.96 1015 10 16 N/A
1:15 pm 13:15 Mostly Cloudy 78 25.7 62 16.6 57 57 SSW 9 15 29.94 1014 10 16 N/A
1:35 pm 13:35 Partly Cloudy 78 25.5 61 16.1 56 56 SW 13 20 29.93 1014 10 16 N/A
1:55 pm 13:55 Mostly Cloudy 79 26 61 16 54 54 S 12 19 29.93 1013 10 16 N/A
2:15 pm 14:15 Partly Cloudy 80 26.5 61 16.1 53 53 SSW 14 22 29.91 1013 10 16 N/A
2:35 pm 14:35 Sunny 80 26.8 60 15.8 51 51 SSW 7 11 29.91 1013 10 16 N/A
2:55 pm 14:55 Sunny 81 27.1 61 16.3 52 52 SW 12 19 29.90 1013 10 16 N/A
3:15 pm 15:15 Sunny 82 27.5 63 17.3 54 54 SW 8 13 29.89 1012 10 16 N/A
3:35 pm 15:35 Sunny 82 27.9 64 17.8 54 54 SSW 12 19 29.87 1012 10 16 N/A
3:55 pm 15:55 Partly Cloudy 82 28 64 17.9 54 54 SW 9 15 29.87 1012 10 16 N/A
4:15 pm 16:15 Partly Cloudy 82 27.7 64 17.8 55 55 SW 12 19 29.88 1012 10 16 N/A
4:35 pm 16:35 Sunny 82 27.8 64 17.8 55 55 SSW 12 19 29.86 1011 10 16 N/A
4:55 pm 16:55 Sunny 82 28 64 18 55 55 SW 8 13 29.86 1011 10 16 N/A
5:15 pm 17:15 Sunny 82 27.9 64 17.9 55 55 SSW 7 11 29.86 1011 10 16 N/A
5:35 pm 17:35 Sunny 82 27.7 64 17.8 55 55 SW 7 11 29.87 1011 10 16 N/A
5:55 pm 17:55 Sunny 82 28 64 17.7 54 54 SW 7 11 29.86 1011 10 16 N/A
6:15 pm 18:15 Sunny 82 27.7 64 17.9 55 55 SSW 6 9 29.86 1011 10 16 N/A
6:35 pm 18:35 Sunny 82 27.5 65 18.1 57 57 S 5 7 29.86 1011 10 16 N/A
6:55 pm 18:55 Sunny 80 26.9 67 19.5 64 64 N N/A 29.86 1011 10 16 N/A
7:15 pm 19:15 Sunny 79 26.1 69 20.3 70 70 SSE 3 6 29.87 1011 10 16 N/A
7:35 pm 19:35 Sunny 76 24.7 69 20.3 77 77 N N/A 29.87 1011 10 16 N/A
7:55 pm 19:55 Sunny 75 24 69 20.3 80 80 SSE 3 6 29.87 1012 10 16 N/A
8:15 pm 20:15 Clear 74 23.5 67 19.6 79 79 SE 5 7 29.88 1012 10 16 N/A
8:35 pm 20:35 Clear 73 22.5 67 19.5 83 83 N N/A 29.90 1012 10 16 N/A
8:55 pm 20:55 Clear 71 21.5 67 19.2 87 87 SSE 3 6 29.91 1013 10 16 N/A
9:15 pm 21:15 Clear 70 21 66 19 88 88 N N/A 29.92 1013 10 16 N/A
9:35 pm 21:35 Clear 69 20.7 66 19.1 91 91 N N/A 29.93 1014 10 16 N/A
9:55 pm 21:55 Clear 70 21 66 19 88 88 SSE 5 7 29.94 1014 10 16 N/A
10:15 pm 22:15 Clear 70 20.9 65 18.4 86 86 N N/A 29.95 1014 10 16 N/A
10:35 pm 22:35 Clear 68 20 64 17.9 88 88 N N/A 29.96 1014 10 16 N/A
10:55 pm 22:55 Clear 68 20.2 64 17.6 85 85 N N/A 29.96 1014 10 16 N/A
11:15 pm 23:15 Clear 67 19.5 63 17.3 87 87 SSE 3 6 29.96 1015 10 16 N/A
11:35 pm 23:35 Clear 68 19.8 62 16.9 83 83 N N/A 29.96 1015 10 16 N/A
11:55 pm 23:55 Clear 66 19 62 16.6 86 86 SE 6 9 29.97 1015 10 16 N/A

Powered by AerisWeather